Curacao, Curacao

10:13 PM AST on August 23, 2017 (GMT -0400)
Willemstad-Hato International

Weather History for TNCC - September, 2013

Change the Weather History Date:

Monday, September 30, 2013

  Actual Average Record
Temperature  
Mean Temperature 87 °F -  
Max Temperature 92 °F 88 °F 93 °F (1998)
Min Temperature 82 °F 77 °F 75 °F (2004)
Cooling Degree Days 22    
Growing Degree Days 37 (Base 50)    
Moisture  
Dew Point 76 °F    
Average Humidity 70    
Maximum Humidity 84    
Minimum Humidity 52    
Precipitation  
Precipitation 0.00 in 0.11 in - ()
Sea Level Pressure  
Sea Level Pressure 29.89 in    
Wind  
Wind Speed 12 mph ()    
Max Wind Speed 18 mph    
Max Gust Speed -    
Visibility 7.3 miles    
Events      
Averages and records for this station are not official NWS values.
T = Trace of Precipitation, MM = Missing Value Source: Averaged Metar Reports

Daily Weather History Graph

Daily Weather History Graph

Search for Another Location

Airport or City:

Trip Planner

Search our weather history database for the weather conditions in past years. The results will help you decide how hot, cold, wet, or windy it might be!

Date:

Astronomy

Sep. 30, 2013 Rise Set
Actual Time 6:24 AM AST 6:26 PM AST
Civil Twilight 6:03 AM AST 6:47 PM AST
Nautical Twilight 5:39 AM AST 7:12 PM AST
Astronomical Twilight 5:14 AM AST 7:36 PM AST
Moon 2:38 AM AST (9/30) 3:20 PM AST (9/30)
Length of Visible Light 12h 43m
Length of Day
12h 01m
Waning Crescent, 19% of the Moon is Illuminated
Sep 30
Waning Crescent
Oct 4
New
Oct 11
First Quarter
Oct 18
Full
Oct 26
Last Quarter

Hourly Weather History & Observations

Time (AST) Temp. Heat Index Dew Point Humidity Pressure Visibility Wind Dir Wind Speed Gust Speed Precip Events Conditions
12:00 AM 82.4 °F 90.9 °F 77.0 °F 84% 29.89 in 6.2 mi ESE 15.0 mph - N/A   Partly Cloudy
1:00 AM 82.4 °F 90.9 °F 77.0 °F 84% 29.89 in 6.2 mi ESE 11.5 mph - N/A   Partly Cloudy
2:00 AM 83 °F - 76 °F 74% 29.89 in 25 mi SE 10.4 mph - -   Scattered Clouds
2:00 AM 82.4 °F 89.5 °F 75.2 °F 79% 29.89 in 6.2 mi ESE 11.5 mph - N/A   Partly Cloudy
3:00 AM 82.4 °F 89.5 °F 75.2 °F 79% 29.89 in 6.2 mi SE 9.2 mph - N/A   Partly Cloudy
6:00 AM 82.4 °F 89.5 °F 75.2 °F 79% 29.89 in 6.2 mi SE 6.9 mph - N/A   Partly Cloudy
7:00 AM 82.4 °F 89.5 °F 75.2 °F 79% 29.89 in 6.2 mi SE 9.2 mph - N/A   Scattered Clouds
8:00 AM 86 °F - 75 °F 63% 29.91 in 25 mi SE 13.8 mph - -  
8:00 AM 86.0 °F 95.1 °F 75.2 °F 70% 29.92 in 6.2 mi SE 13.8 mph - N/A   Partly Cloudy
9:00 AM 87.8 °F 95.6 °F 73.4 °F 62% 29.92 in 6.2 mi ESE 18.4 mph - N/A   Scattered Clouds
10:00 AM 87.8 °F 97.6 °F 75.2 °F 66% 29.95 in 6.2 mi SE 17.3 mph - N/A   Scattered Clouds
11:00 AM 90 °F - 75 °F 52% 29.93 in 25 mi SE 10.4 mph - -   Partly Cloudy
11:00 AM 91.4 °F 102.5 °F 75.2 °F 59% 29.92 in 6.2 mi ESE 18.4 mph - N/A   Scattered Clouds
12:00 PM 91.4 °F 102.5 °F 75.2 °F 59% 29.92 in 6.2 mi ESE 17.3 mph - N/A   Scattered Clouds
1:00 PM 91.4 °F 100.1 °F 73.4 °F 55% 29.89 in 6.2 mi ESE 17.3 mph - N/A   Scattered Clouds
2:00 PM 88 °F - 77 °F 62% 29.87 in 25 mi ESE 13.8 mph - -   Partly Cloudy
2:00 PM 87.8 °F 99.7 °F 77.0 °F 70% 29.86 in 6.2 mi East 15.0 mph - N/A   Scattered Clouds
3:00 PM 89.6 °F 99.8 °F 75.2 °F 62% 29.86 in 6.2 mi East 15.0 mph - N/A   Partly Cloudy
4:00 PM 89.6 °F 98.2 °F 73.4 °F 59% 29.86 in 6.2 mi East 16.1 mph - N/A   Partly Cloudy
5:00 PM 87 °F - 76 °F 63% 29.83 in 25 mi ESE 13.8 mph - -   Scattered Clouds
5:00 PM 87.8 °F 97.6 °F 75.2 °F 66% 29.83 in 6.2 mi East 15.0 mph - N/A   Partly Cloudy
6:00 PM 84.2 °F 92.3 °F 75.2 °F 74% 29.83 in 6.2 mi East 16.1 mph - N/A   Partly Cloudy
7:00 PM 84.2 °F 92.3 °F 75.2 °F 74% 29.86 in 6.2 mi East 16.1 mph - N/A   Partly Cloudy
8:00 PM 84 °F - 76 °F 71% 29.90 in 19 mi East 16.1 mph - -   Scattered Clouds
8:00 PM 84.2 °F 94.1 °F 77.0 °F 79% 29.89 in 6.2 mi East 17.3 mph - N/A   Partly Cloudy
9:00 PM 84.2 °F 94.1 °F 77.0 °F 79% 29.92 in 6.2 mi East 15.0 mph - N/A   Partly Cloudy
10:00 PM 84.2 °F 94.1 °F 77.0 °F 79% 29.95 in 6.2 mi East 15.0 mph - N/A   Partly Cloudy
11:00 PM 84 °F - 77 °F 74% 29.94 in 19 mi East 13.8 mph - -   Scattered Clouds
11:00 PM 84.2 °F 94.1 °F 77.0 °F 79% 29.92 in 6.2 mi East 13.8 mph - N/A   Partly Cloudy